235  
ASUS44 KJAN 222210  
RWRMS  
 
MISSISSIPPI HOURLY WEATHER ROUNDUP  
NATIONAL WEATHER SERVICE JACKSON MS  
500 PM CDT SAT SEP 22 2018  
 
NOTE: "FAIR: INDICATES FEW OR NO CLOUDS BELOW 12,000 FEET WITH NO  
SIGNIFICANT WEATHER AND/OR S TO VISIBILITY
.  
 
MSZ001>002-007>008-010>013-018>021-025>028-034>036-222300-  
NORTHWEST MISSISSIPPI  
 
CITY SKY/WX TMP DP RH WIND PRES REMARKS
 
BATESVILLE CLOUDY 75 73 94 N6 29.98R  
CLARKSDALE CLOUDY 72 72 100 N12 30.00S  
CLEVELAND MOCLDY 74 73 98 N13 29.97S  
GREENWOOD FAIR 82 73 74 N8 29.94R THUNDER  
GREENVILLE PTSUNNY 75 69 81 N13 29.97R  
OLIVE BRANCH CLOUDY 68 68 100 N8 30.01S FOG  
OXFORD FAIR 73 72 94 CALM 30.00S  
TUNICA N/A 68 64 88 N8 30.02S  
WINONA MOCLDY 84 73 67 CALM 29.94F HX 90  

 
 
MSZ003>006-009-014>017-022>024-029>033-037>039-222300-  
NORTHEAST MISSISSIPPI  
 
CITY SKY/WX TMP DP RH WIND PRES REMARKS
 
ABERDEEN MOCLDY 79 79 100 CALM 29.98R  
COLUMBUS AFB FAIR 76 73 90 SW6 29.94F  
CORINTH LGT RAIN 73 72 94 NW5 30.00R  
GOLDN TRIANGLE FAIR 82 74 76 CALM 29.95S  
STARKVILLE FAIR 84 72 65 NE7 29.96S  
TUPELO PTSUNNY 79 74 84 N6 29.98R  

 
 
MSZ040-058-222300-  
CENTRAL MISSISSIPPI  
 
CITY SKY/WX TMP DP RH WIND PRES REMARKS
 
JACKSON INTL PTSUNNY 86 71 60 E10 29.94S HX 91  
JACKSON HAWKNS FAIR 88 72 58 CALM 29.94S HX 94  
MADISON FAIR 86 73 66 CALM 29.94R HX 93  
MERIDIAN KEY FAIR 90 71 53 SE9 29.95S HX 96  
MERIDIAN NAS FAIR 91 72 53 SE8 29.95S HX 98  
RAYMOND N/A 88 79 74 CALM 29.93S HX 102  
VICKSBURG VKS CLEAR 82 73 74 NW6 29.94S HAZE  

 
 
MSZ059>079-222300-  
SOUTH MISSISSIPPI  
 
CITY SKY/WX TMP DP RH WIND PRES REMARKS
 
COLUMBIA FAIR 82 73 74 E7 30.00S  
HATTIESBURG FAIR 85 73 67 S9 29.96F HX 91  
LAUREL FAIR 79 78 97 N6 29.97S  
MCCOMB PTSUNNY 86 72 62 E6 29.94F HX 92  
NATCHEZ LGT RAIN 74 72 93 SW3 29.97F  
PINE BELT FAIR 80 74 81 CALM 29.98R  

 
 
MSZ080>082-222300-  
COASTAL MISSISSIPPI  
 
CITY SKY/WX TMP DP RH WIND PRES REMARKS
 
BAY ST LOUIS MOSUNNY 88 73 62 S10 29.95S HX 96  
BILOXI PTSUNNY 89 74 60 SW9 29.95S HX 97  
PASCAGOULA PTSUNNY 89 74 60 S9 29.95S HX 98  
GULFPORT FAIR 87 73 62 S8 29.94S HX 94  

 
 
LAZ007>009-015>016-023>026-222300-  
NORTHEAST LOUISIANA  
 
CITY SKY/WX TMP DP RH WIND PRES REMARKS
 
BASTROP RAIN 74 73 98 CALM 29.97F  
TALLULAH/VBURG PTSUNNY 81 72 74 NW5 29.95R  
VIDALIA LGT RAIN 77 72 85 SW9 29.97R  

 
 
 
CLICK HERE TO GO TO PREVIOUS BULLETINS.

The Nexlab MS Page Main Text Page